AQI (39)

Current Conditions for Foresthill, CA. Mostly Cloudy, Dry   
Visibility: 10 miles
Cloud ht: 10,000 ft
Space WX Alerts: CONTINUED ALERT:  Electron 2MeV Integral Flux exceeded 1000pfu ( Latest Alert ) - Issue Time: 2018 Dec 16 1416 UTC

  Summary / Temperature 

Current Temperature
52.5°F
11.4°C
(24/hr Ago)
52.9°F
(Apparent temp)
44.3°F
Cool
Wind Chill Graphs
52.5°F 

52.5°F/ 11.4°C
 --- Virtual Temp: 53.8°F ---

 Temp Rate:

 24/hr Difference:

 Avg Running Temp:

 Todays High:

 Todays Low:

 Y-days High:

 Y-days Low:

 Todays WChill:

 Y-days WChill:

 Evapotranspiration:

+1.4°F/hr 

-0.4°F

51.0°F

52.6°F 12:58pm

41.4°F 3:54am

53.2°F 1:26pm

42.2°F 11:58pm

32.8°F 5:54am

35.5°F 8:52am

0.024 in

115' Above Ground

 Temperature:

 6'AGL VRS 115'AGL:

 Avg Running Temp:

 Humidity:

 Todays High:

 Todays Low:

 Y-days High:

 Y-days Low:

53.0°F 

+0.5°F

52.2°F

40% 

54.0°F 12:39pm

50.0°F 12:00am

55.0°F 12:36pm

50.0°F 12:00am

Temp & Humidity Graphs

  Wind 

Wind Speed

 7.0 mph

Gusting to

 19.0 mph

Wind from S

175°  S

Light breeze

 Avg speed:

 Wind Run:

 Peak Gust:

  8.0 mph 

34.0 miles

  19.0 mph 5:18am

  Almanac  

Moon age: 8 days,15 hours,53 minutes,64%

Waxing Gibbous
64%
Illuminated
8 days in cycle

 Moonrise:

 Moonset:

 Sunrise:

 Sunset:

 Solar Noon:

1:09pm

12:35am

7:14am

4:41pm

11:59am

0min 25s less daylight tomorrow 

  Solar Radiation 

(Current Solar)
  97 W/m2 (20%)
(Todays High)
 631 W/m2@10:23am
Feels like: 51.6°F in the sun

Rain

 Rain Today:

 Rain Rate (/hr):

 Rain last hour:

 Rain Yesterday:

 This Month:

 Season Total:

10 Days Since Last Rain Day

0.00 in

0.000 in

0.00 in

0.00 in

1.05 in

9.55 in

Updated Time

Updated: 12/16/18  1:07pm

(Updated  sec ago)

Humidity & Barometer

 Humidity:

 Wetbulb:

 Dew Point:

 Barometer:

44% 

44.2°F 

31.2°F 

30.120 inHg 

 Baro Trend:  Falling Slowly 
Northern Calif
Preparedness
Fire 
Level 

    UV Index  

(Current UV)
0.5  Low
(Todays High) @ 12:25pm
1.6   Low

National Weather Service Forecast

This
Afternoon
This Afternoon: Heavy Rain
Heavy Rain
Tonight

Tonight: Heavy Rain
Heavy Rain
Monday

Monday: Chance Rain Showers then Partly Sunny
Chance Rain Showers
Monday
Night
Monday Night: Mostly Cloudy
Mostly Cloudy
Tuesday

Tuesday: Mostly Sunny
Mostly Sunny
Tuesday
Night
Tuesday Night: Partly Cloudy
Partly Cloudy
Hi 52 °F ↓ Lo 42 °F Hi 49 °F ↓ Lo 40 °F Hi 53 °F Lo 43 °F

Foresthill Probe 2 Stats  
Foresthill Probe 2: is located on Thomas Street
at 3000 feet. The main Foresthill Weather site
is located on Melody ln at the 2860 foot elevation

Light Air
52.0°F
11.1°C
Temp Rate:
+1.3°F
1.0 mph
Gusting to
6.0 mph
(Humidity)
44%
Wind from ESE
107°  ESE
Updated: 16/12/18 - 13:02:55
 Todays High: 52.3°F 12:40
 Todays Low: 40.8°F 04:10
 Rain Today: 0.00 in
 Season Total: 9.72 in

Foresthill Wx: Monthly,Yearly, Highs and Lows 

Foresthill  
This Weather Data is coming from the main Foresthill
Weather site located on Melody ln at the 2860 foot
elevation
Not Foresthill Probe 2
Weather Data
Month
  High
Month
  Low
Year
High
Year
Low
Temp 53.8°F
12/12/18
31.7°F
12/2/18
93.9°F
8/10/18
21.9°F
2/23/18
Humidity 100%
12/1/18
34%
12/14/18
100%
1/8/18
9%
10/15/18
Heat Index 55.8°F
12/12/18
36.0°F
12/3/18
93.3°F
7/25/18
27.1°F
2/20/18
Wind Chill 53.8°F
12/12/18
19.7°F
12/3/18
93.9°F
8/10/18
9.2°F
2/23/18
Wind Gust 25 mph
12/1/18
0 mph
12/1/18
43 mph
3/1/18
0 mph
1/1/18
Barometer 30.41 in
12/9/18
29.92 in
12/5/18
30.55 in
1/27/18
29.53 in
11/29/18
ET 0.06 in
12/13/18
0.00 in
12/1/18
0.25 in
6/24/18
0.00 in
1/1/18
Dew Point 44.0°F
12/8/18
23.6°F
12/14/18
66.9°F
7/24/18
0.7°F
11/8/18
Pacific Satellite US Radar Satellite Imagery Sacramento,CA.  (click to enlarge)
NWS Weather Forecast - Summary
Updated: Sunday, December 16, 2018 - 3:00am PST
Current Interstate Highway Conditions for I-80 & US-50

[I 80: IN THE SAN FRANCISCO BAY AREA - SOLANO CO]
no traffic restrictions are reported for this area.

[I 80: IN THE NORTHERN CALIFORNIA AREA & SIERRA NEVADA]
no traffic restrictions are reported for this area.

[US 50: IN THE SACRAMENTO VALLEY & THE LAKE TAHOE BASIN]
no traffic restrictions are reported for this area.
NWS Weather Forecast: This Afternoon and Tonight (Updated: Sun, 16-Dec-2018 10:31am PST)
This
Afternoon
This Afternoon: Heavy Rain
Heavy Rain

Hi 52 °F ↓
NWS forecast: Rain. Cloudy. High near 52, with temperatures falling to around 49 in the afternoon. South southeast wind around 13 mph, with gusts as high as 20 mph. Chance of precipitation is 100%. New rainfall amounts between a half and three quarters of an inch possible.
Tonight

Tonight: Heavy Rain
Heavy Rain

Lo 42 °F
NWS forecast: Rain before 4am, then a chance of rain showers. Cloudy, with a low around 42. South southeast wind 7 to 13 mph, with gusts as high as 22 mph. Chance of precipitation is 100%. New rainfall amounts between 1 and 2 inches possible.
YR.NO 10 Day Weather forecast
Last update: 12/15/2018 @ 23:33
Next update: 12/16/2018 @ 12:00
Provided by: 22
      Temperature Precipitation Pressure Wind  
Today
12/16/2018
12:00 18:00 52°F 0.33 in 30.07 inHg Light breeze from south-southeast 6 mph
  18:00 00:00 43°F 1.04 in 30.04 inHg Gentle breeze from southeast 9 mph
    (Click to enlarge)
meteogram

    Forecast for next 9 days

      Temperature Precip Pressure Wind  
Monday
12/17/2018
00:00 06:00 43°F 0.52 in 30.10 inHg Light breeze from southwest 5 mph
  06:00 12:00 41°F   30.18 inHg Light air from east-southeast 2 mph
  12:00 18:00 50°F   30.18 inHg Light air from south-southwest 3 mph
  18:00 00:00 41°F   30.24 inHg Light air from northeast 1 mph
      Temperature Precip Pressure Wind  
Tuesday
12/18/2018
00:00 06:00 36°F   30.26 inHg Light breeze from east-northeast 4 mph
  06:00 12:00 36°F   30.27 inHg Light air from east-northeast 2 mph
  12:00 18:00 50°F   30.28 inHg Light air from south-southwest 3 mph
  16:00 22:00 48°F   30.29 inHg Light air from south-southwest 1 mph
  22:00 04:00 39°F   30.30 inHg Light air from east-northeast 3 mph
      Temperature Precip Pressure Wind  
Wednesday
12/19/2018
04:00 10:00 41°F   30.29 inHg Light breeze from east-northeast 4 mph
  10:00 16:00 54°F   30.29 inHg Light air from north 2 mph
  16:00 22:00 54°F   30.17 inHg Light air from west-southwest 2 mph
  22:00 04:00 36°F   30.19 inHg Light air from east-northeast 3 mph
      Temperature Precip Pressure Wind  
Thursday
12/20/2018
04:00 10:00 36°F   30.13 inHg Light air from east-northeast 3 mph
  10:00 16:00 57°F   30.12 inHg Light breeze from south-southeast 4 mph
  16:00 22:00 50°F   30.09 inHg Light air from west 1 mph
  22:00 04:00 45°F 0.04 in 30.12 inHg Light breeze from east-southeast 4 mph
      Temperature Precip Pressure Wind  
Friday
12/21/2018
04:00 10:00 43°F   30.09 inHg Light breeze from east 4 mph
  10:00 16:00 50°F   30.11 inHg Light air from east-northeast 3 mph
  16:00 22:00 50°F   30.06 inHg Light air from west-southwest 3 mph
  22:00 04:00 43°F   30.09 inHg Light air from east 1 mph
      Temperature Precip Pressure Wind  
Saturday
12/22/2018
04:00 10:00 45°F   30.06 inHg Light air from east-southeast 1 mph
  10:00 16:00 48°F   30.11 inHg Calm from north-northwest 0 mph
  16:00 22:00 48°F   30.04 inHg Light breeze from west-southwest 4 mph
  22:00 04:00 45°F 0.04 in 30.06 inHg Light air from south 2 mph
      Temperature Precip Pressure Wind  
Sunday
12/23/2018
04:00 10:00 41°F 0.11 in 30.06 inHg Light air from south 3 mph
  10:00 16:00 39°F 0.20 in 30.12 inHg Gentle breeze from south-southwest 8 mph
  16:00 22:00 37°F 0.05 in 30.09 inHg Gentle breeze from south-southeast 8 mph
  22:00 04:00 37°F   30.19 inHg Light breeze from east-southeast 5 mph
      Temperature Precip Pressure Wind  
Monday
12/24/2018
04:00 10:00 30°F   30.19 inHg Light air from east-northeast 3 mph
  10:00 16:00 39°F   30.17 inHg Light air from east 3 mph
  16:00 22:00 37°F 0.10 in 30.12 inHg Light breeze from south 4 mph
  22:00 04:00 34°F 0.06 in 30.06 inHg Light breeze from east-southeast 4 mph
      Temperature Precip Pressure Wind  
Tuesday
12/25/2018
04:00 10:00 34°F   30.10 inHg Light air from northeast 2 mph
  10:00 16:00 39°F   30.20 inHg Light breeze from north-northwest 4 mph

NOAA Local Storm Report
KINGSTON   ( More )
DATE
12/16/2018
TIME
7:00 AM
COUNTY
ULSTER
STATE
NY
GEOGRAPHIC
41.93N 74.00W
SOURCE
SOCIAL MEDIA
SLEET MEASURED AT 0.1 INCH

NOAA Local Storm Report
1 MILE EAST OF NORTH BETHLEHEM   ( More )
DATE
12/16/2018
TIME
12:30 PM
COUNTY
ALBANY
STATE
NY
GEOGRAPHIC
42.67N 73.82W
SOURCE
NWS EMPLOYEE
SLEET MEASURED AT 0.2 INCH

NOAA Local Storm Report
ALBANY   ( More )
DATE
12/16/2018
TIME
1:00 PM
COUNTY
ALBANY
STATE
NY
GEOGRAPHIC
42.69N 73.83W
SOURCE
NWS ALBANY OFFIC
SLEET MEASURED AT 0.2 INCH
How Close Are We To this Month's Temperature Record ?
Updated Sunday, Dec 16, 2018- 1:00:01 PM

Current Temperature: 52.5°F

December's High: Temperature Record 65.8°F - Set on Tue, Dec 17, 2013 - 1:22:00 PM
We are currently 13.3°F Less than this Month's record High

December's Low: Temperature Record 20.2°F - Set on Sun, Dec 8, 2013 - 7:26:00 AM
We are currently 32.3°F More than this Month's record Low

Weather History For Sunday, December 16, 2018


On this Day - In Weather History ...
Data courtesy of weatherforyou.com
powered by Cumulus v1.9.3 (1059)
Ambient Weather VWS v14.00
Top Contact Website Map Copyright © 2007 - 2018 Foresthillweather.com Never base important decisions on this or any weather information obtained from the Internet